Regional Weather Roundup
Issued by NWS

Home | Current Version | Previous Version | Text Only | Print | Product List | Glossary On
Versions: 1 2 3 4 5 6 7 8 9 10 11 12 13 14 15 16 17 18 19 20 21 22 23 24 25 26 27 28 29 30 31 32 33 34 35 36 37 38 39 40 41 42 43 44 45 46 47 48 49 50
000
ASUS43 KLOT 222110
RWRIL

ILLINOIS REGIONAL WEATHER ROUNDUP
NATIONAL WEATHER SERVICE CHICAGO/ROMEOVILLE IL
300 PM CST MON DEC 22 2014

NOTE: "FAIR" INDICATES FEW OR NO CLOUDS BELOW 12,000 FEET WITH NO
SIGNIFICANT WEATHER AND/OR OBSTRUCTIONS TO VISIBILITY.

* THESE STATIONS ARE NOT UNDER NWS QUALITY CONTROL. THEY ALSO MAY NOT
  REPORT WEATHER SUCH AS PRECIPITATION OR FOG.

ILZ001-002-007-009-015-016-024-222200-
NORTHWEST ILLINOIS

CITY           SKY/WX    TMP DP  RH WIND       PRES   REMARKS
MOLINE         LGT RAIN  38  36  92 SE9       29.58S FOG     WCI  31
STERLING*      CLOUDY    37  34  87 SE13      29.62F WCI  29
SAVANNA*       DRIZZLE   37  35  93 E12       29.61S WCI  29
$$

ILZ003-004-008-010-011-017-018-222200-
NORTH CENTRAL ILLINOIS

CITY           SKY/WX    TMP DP  RH WIND       PRES   REMARKS
ROCKFORD       LGT RAIN  36  34  92 E15       29.66F FOG     WCI  27
FREEPORT*      RAIN      34  33  96 E15       29.63F WCI  25
ROCHELLE*      RAIN      35  35  98 E16       29.64F WCI  25
DE KALB*       LGT RAIN  35  34  96 E15G22    29.67F WCI  25
PERU*          RAIN      40  38  96 SE9       29.63F
$$

ILZ005-006-012>014-019>023-222200-
NORTHEAST ILLINOIS

CITY           SKY/WX    TMP DP  RH WIND       PRES   REMARKS
CHICAGO-OHARE  LGT RAIN  36  34  92 E13       29.71F FOG     WCI  27
CHICAGO-MIDWAY LGT RAIN  39  36  89 E8        29.73F FOG     WCI  33
AURORA         LGT RAIN  38  35  89 E14       29.68F FOG     WCI  30
LANSING*       RAIN      38  37  94 SE12      29.73F WCI  31
JOLIET*        LGT RAIN  37  36  96 SE14      29.70S WCI  29
WAUKEGAN       LGT RAIN  35  33  92 E12       29.73F FOG     WCI  27
DUPAGE AIRPORT LGT RAIN  37  35  92 E12       29.68F FOG     WCI  29
KANKAKEE*      LGT RAIN  38  38  97 SE10      29.71F WCI  31
WHEELING       LGT RAIN  36  33  89 E7        29.74F FOG     WCI  30
MORRIS*        LGT RAIN  38  38 100 E13       29.67F WCI  30
ROMEOVILLE*    LGT RAIN  38  38  99 SE12G17   29.70F WCI  30
NORTHERLY ISL    N/A     36  34  92 E8          N/A  WCI  30
$$

LMZ740>746-222200-
SOUTHERN LAKE MICHIGAN

STATION/POSITION SKY/WX   TEMP    WIND        PRES    VSBY  WAVE
                          AIR SEA DIR/SP/G                  HT/PER
                          (F)     (DEG/KT/KT) (MB)    (MI)  (FT/S)
WAUKEGAN HARBOR            36     120/ 10/ 15   N/A
HARRISON CRIB              36     120/ 15/ 17   N/A
BURNHAM HARBOR             36     100/  8/  9   N/A
CALUMET HARBOR             38     110/  9/ 13 1005.9F
$$

ILZ025>027-034>036-040-047-049-050-058-095>099-222200-
WEST-CENTRAL ILLINOIS

CITY           SKY/WX    TMP DP  RH WIND       PRES   REMARKS
QUINCY         LGT RAIN  43  42  97 SE9       29.53F FOG
GALESBURG*     CLOUDY    39  39  99 SE6       29.57F FOG     WCI  35
MACOMB*        CLOUDY    41  41 100 SE9       29.58F FOG
JACKSONVILLE*  CLOUDY    47  44  92 SE10      29.57F
PITTSFIELD*    CLOUDY    45  43  93 SE9       29.55F
$$

ILZ028>032-037-038-041>044-048-051>054-059>061-222200-
CENTRAL ILLINOIS

CITY           SKY/WX    TMP DP  RH WIND       PRES   REMARKS
PONTIAC        LGT RAIN  40  39  99 E16       29.65F
BLOOMINGTON    LGT RAIN  41  41 100 SE15      29.63F FOG
DECATUR        RAIN      45  44  97 S10       29.63F FOG
PEORIA         CLOUDY    43  40  89 SE9       29.60F
LACON*         DRIZZLE   40  38  94 SE7       29.62S
LINCOLN*       LGT RAIN  45  43  95 SE14      29.61F
SPRINGFIELD    LGT RAIN  45  45 100 SE12      29.60F FOG
TAYLORVILLE    DRIZZLE   43  43 100 SE14      29.60F
$$

ILZ033-039-045-046-055>057-062-063-222200-
EAST-CENTRAL ILLINOIS

CITY           SKY/WX    TMP DP  RH WIND       PRES   REMARKS
CHAMPAIGN      LGT RAIN  43  42  97 SE14      29.66F FOG
DANVILLE*      HVY RAIN  42  40  96 SE12      29.67F
RANTOUL*       LGT RAIN  43  42  97 SE14      29.67F
MATTOON        LGT RAIN  44  42  93 SE13      29.65F FOG
PARIS*         LGT RAIN  45  44  95 SE10G17   29.69F
$$

ILZ079-100>102-222200-
SOUTHWEST ILLINOIS

CITY           SKY/WX    TMP DP  RH WIND       PRES   REMARKS
ALTON          LGT RAIN  46  45  93 SE9       29.58F
BELLEVILLE     LGT RAIN  48  48 100 SE8       29.58F
CAHOKIA*       LGT RAIN  49  47  93 SE10      29.56F
SPARTA*        LGT RAIN  48  47  97 S8        29.60F
$$

ILZ064>066-069>071-074>076-080>082-084>086-088>090-092>094-222200-
SOUTH-CENTRAL ILLINOIS

CITY           SKY/WX    TMP DP  RH WIND       PRES   REMARKS
CARBONDALE     LGT RAIN  50  48  93 SE12      29.60F
CAIRO*         CLOUDY    55  53  95 SE8       29.62F
EFFINGHAM*     RAIN      47  44  90 E13G20    29.65F
MARION         DRIZZLE   50  48  93 S9        29.64F
MT. VERNON     CLOUDY    48  45  87 SE6       29.63F
CENTRALIA*     LGT RAIN  47  45  91 SE13      29.61F
SALEM*         RAIN      49  46  92 SE12      29.62F
METROPOLIS*    CLOUDY    52  52 100 SE5       29.63F
$$

ILZ067-068-072-073-078-083-087-091-222200-
SOUTHEAST ILLINOIS

CITY           SKY/WX    TMP DP  RH WIND       PRES   REMARKS
LAWRENCEVILLE  LGT RAIN  49  45  86 SE16      29.70F FOG
FLORA*         LGT RAIN  47  46  96 SE12      29.66S
FAIRFIELD*     RAIN      48  47  97 SE13G18   29.64F
HARRISBURG*    LGT RAIN  50  49  98 SE9       29.66S
ROBINSON*      LGT RAIN  47  45  92 SE12G18   29.69F
CARMI*         LGT RAIN  50  49  97 SE13      29.65F
$$

ABBREVIATIONS USED IN REMARKS
   TC - TEMPERATURE IN CELSIUS
  WCI - WIND CHILL INDEX
   HX - HEAT INDEX
  VSB - VISIBILITY
$$



USA.gov is the U.S. government's official web portal to all federal, state and local government web resources and services.